[[{"header":{"parameterUnit":"m.s-1","parameterCategory":1,"la1":30.2991,"la2":30.254,"lo1":-89.0895,"lo2":-89.0444,"dy":0.0017,"dx":0.0017,"nx":28,"ny":28,"refTime":"2025-07-09T21:00:00:Z","depth":0,"parameterNumber":2,"parameterNumberName":"U-component_of_WINDS"},"data":[0,0,0,0,0,0,0,0,0,0,0,0,0,0,0,0,0,0,0,0,0,0,0,0,0,0,0,0,0,0,0,0,0,0,0,0,0,0,0,0,0,0,0,0,0,0,0,0,0,0,0,0,0,0,0,0,0,0,4.57,4.5702,0,4.5902,4.5904,4.5906,4.5861,4.5857,4.5853,4.585,4.6062,4.6071,4.608,0,0,0,0,0,0,0,0,0,0,0,0,0,4.5277,4.5285,4.5699,4.5702,4.5705,4.5901,4.5904,4.5907,4.5862,4.5857,4.5852,4.5848,4.6059,4.607,4.6081,0,0,0,0,0,0,0,0,0,0,0,0,0,4.5468,4.5287,4.5699,4.5705,4.5708,4.5901,4.5904,4.5908,4.5863,4.5857,4.5851,4.5846,4.6055,4.6069,4.6082,4.6283,0,0,4.6125,4.6131,0,0,0,0,0,0,0,0,4.5457,4.5484,4.5702,4.5705,4.5709,4.585,4.5833,4.6034,4.5864,4.5804,4.585,4.5843,4.5996,4.6015,4.6065,4.6293,4.6302,4.6126,4.6134,4.614,4.6144,0,0,0,0,0,0,0,4.5444,4.5475,4.578,4.5705,4.5709,4.5699,4.572,4.5871,4.593,4.5809,4.5806,4.583,4.5997,4.6052,4.607,4.6305,4.6125,4.6138,4.6146,4.6152,4.6705,4.6711,0,0,0,0,0,0,4.5427,4.5464,4.5773,4.5786,4.5566,4.5711,4.5735,4.5811,4.5928,4.5941,4.5835,4.5827,4.6031,4.6054,4.6077,4.6318,4.614,4.6153,4.6161,4.6699,4.6706,4.6713,0,0,0,0,0,0,4.5418,4.5455,4.5765,4.5624,4.5663,4.5725,4.581,4.5818,4.5873,4.5948,4.5959,4.588,4.6028,4.6058,4.6231,4.6325,4.6159,4.6172,4.6691,4.6701,4.671,4.6803,0,0,0,0,0,0,4.5406,4.5452,4.5529,4.5626,4.567,4.5915,4.5816,4.5826,4.5896,4.5888,4.5993,4.6005,4.6026,4.6211,4.6245,4.6341,4.6183,4.6683,4.6695,4.6707,4.6792,4.6815,4.6834,0,0,0,0,0,4.5392,4.5549,4.5533,4.5571,4.5767,4.5921,4.5946,4.5965,4.5904,4.5981,4.6029,4.6002,4.6309,4.6229,4.6267,4.6369,4.6677,4.6692,4.6706,4.6783,4.681,4.6834,0,0,0,0,0,0,4.5464,4.5562,4.5545,4.5738,4.5821,4.5912,4.6011,4.5994,4.6097,4.6086,4.6106,4.613,4.6306,4.6355,4.6264,4.6568,4.6485,4.6507,4.653,4.6557,4.6578,4.6562,4.6194,0,0,0,0,0,4.5501,4.5617,4.5697,4.586,4.5901,4.5949,4.6017,4.6024,4.6111,4.6146,4.6207,4.6294,4.641,4.6486,4.6597,4.6799,4.682,4.6887,4.6908,4.6925,4.6945,4.7053,4.7084,4.676,4.676,4.676,0,0,4.5582,4.565,4.5722,4.5876,4.594,4.606,4.5979,4.611,4.6199,4.6167,4.6333,4.6381,4.6479,4.6667,4.6753,4.6713,4.7039,4.6944,4.6957,4.6967,4.7071,4.7102,4.7129,4.677,4.6768,4.6767,0,0,4.5789,4.5852,4.5994,4.6059,4.6158,4.6188,4.6222,4.6316,4.6345,4.6512,4.649,4.6596,4.6796,4.6866,4.6928,4.7159,4.7137,4.7195,4.7306,4.7411,4.7437,4.7459,4.7541,4.757,4.7214,4.7214,4.7214,0,4.5877,4.6055,4.6069,4.6201,4.6269,4.6242,4.6386,4.645,4.658,4.6628,4.6581,4.6829,4.6894,4.7097,4.7152,4.7204,4.7243,4.7183,4.7431,4.7454,4.7476,4.7554,4.7584,4.722,4.722,4.7219,4.7219,0,4.6158,4.6282,4.6384,4.6508,4.6587,4.6725,4.6759,4.6839,4.6838,4.6873,4.7043,4.7118,4.7243,4.7292,4.7294,4.7495,4.7467,4.7426,4.7342,4.7513,4.7586,4.7616,4.7229,4.7227,4.7225,4.7224,0,0,4.6419,4.6545,4.6583,4.6637,4.6743,4.6839,4.6975,4.7094,4.7161,4.7252,4.7366,4.7534,4.7495,4.7565,4.7575,4.7667,4.7844,4.7615,4.7617,4.7654,4.8069,4.8099,4.8133,4.7829,4.7835,4.784,4.806,0,4.6635,4.6871,4.6886,4.7101,4.7215,4.719,4.7308,4.7386,4.7422,4.7524,4.7564,4.7683,4.7624,4.7665,4.7756,4.7803,4.7927,4.7787,4.7936,4.7941,4.7912,4.8172,4.8205,4.8409,4.8089,4.8094,4.8097,0,4.6919,4.7015,4.724,4.7326,4.7375,4.748,4.759,4.7688,4.7775,4.7795,4.7872,4.7867,4.8007,4.7917,4.8109,4.8014,4.8075,4.8107,4.8116,4.8131,4.803,4.8193,4.8475,4.8505,4.8143,4.8139,4.8136,0,4.7085,4.7271,4.7429,4.7476,4.7582,4.7656,4.7704,4.7785,4.7855,4.7952,4.7997,4.811,4.8171,4.8259,4.8285,4.8217,4.8476,4.8389,4.8496,4.8496,4.8552,4.8548,4.8847,4.8592,4.8592,4.8591,4.8591,0,4.7325,4.7464,4.7504,4.7602,4.7756,4.7772,4.7924,4.7968,4.804,4.8145,4.8132,4.8231,4.8259,4.8364,4.8386,4.8541,4.8569,4.8589,4.8593,4.859,4.8588,4.8631,4.8618,4.8599,4.8598,4.8596,4.8595,0,4.7537,4.757,4.774,4.7825,4.7849,4.7959,4.8032,4.8125,4.8158,4.8292,4.8324,4.8376,4.8499,4.8533,4.8681,4.8695,4.8877,4.8868,4.8847,4.8847,4.8952,4.8941,4.9289,4.9335,4.905,4.9053,4.9055,0,4.7688,4.7794,4.7888,4.7956,4.8006,4.8118,4.8188,4.8208,4.8282,4.8387,4.8469,4.8588,4.8686,4.8883,4.8935,4.9047,4.9041,4.9155,4.9058,4.9051,4.9042,4.9035,4.9045,4.9173,4.9176,4.9179,4.9181,0,4.7952,4.7962,4.8063,4.817,4.8254,4.834,4.8422,4.8479,4.851,4.8595,4.8718,4.8793,4.8942,4.9062,4.9175,4.9225,4.9209,4.921,4.9241,4.9239,4.9222,4.9232,4.8896,4.9203,4.92,4.9199,4.9198,4.9197,4.8138,4.823,4.831,4.8422,4.8485,4.8562,4.8653,4.8696,4.8798,4.8919,4.8925,4.9059,4.9142,4.9292,4.9347,4.9453,4.9419,4.9464,4.9475,4.9486,4.9494,4.9205,4.9474,4.9473,4.9473,4.9472,4.9472,0,4.8401,4.845,4.8553,4.8667,4.8755,4.8729,4.8818,4.8894,4.9012,4.9089,4.9184,4.9325,4.944,4.95,4.9614,4.9687,4.9682,4.9716,4.9711,4.9723,4.9518,4.948,4.9718,4.9718,4.9718,4.9718,4.9718,4.9718,4.8548,4.8701,4.872,4.8904,4.8952,4.9081,4.9134,4.9204,4.9266,4.9423,4.9518,4.9555,4.9625,4.9744,4.9848,4.9863,4.9906,4.9944,4.9954,4.9763,4.9737,4.9713,4.9677,4.9953,4.9953,5.015,5.0152,5.0153]},{"header":{"parameterUnit":"m.s-1","parameterCategory":1,"la1":30.2991,"la2":30.254,"lo1":-89.0895,"lo2":-89.0444,"dy":0.0017,"dx":0.0017,"nx":28,"ny":28,"refTime":"2025-07-09T21:00:00:Z","depth":0,"parameterNumber":3,"parameterNumberName":"V-component_of_WINDS"},"data":[0,0,0,0,0,0,0,0,0,0,0,0,0,0,0,0,0,0,0,0,0,0,0,0,0,0,0,0,0,0,0,0,0,0,0,0,0,0,0,0,0,0,0,0,0,0,0,0,0,0,0,0,0,0,0,0,0,0,0.0738,0.0738,0,0.0663,0.0663,0.0662,0.0606,0.0605,0.0605,0.0604,0.0527,0.0525,0.0524,0,0,0,0,0,0,0,0,0,0,0,0,0,0.0832,0.083,0.0738,0.0737,0.0737,0.0664,0.0663,0.0662,0.0606,0.0605,0.0604,0.0604,0.0527,0.0526,0.0524,0,0,0,0,0,0,0,0,0,0,0,0,0,0.0777,0.083,0.0739,0.07,0.0696,0.0664,0.0663,0.0661,0.0606,0.0605,0.0604,0.0604,0.0528,0.0526,0.0523,0.0524,0,0,0.0516,0.0515,0,0,0,0,0,0,0,0,0.0781,0.0774,0.0706,0.0702,0.0698,0.0643,0.0667,0.0615,0.0606,0.064,0.0604,0.0603,0.0566,0.0561,0.0548,0.052,0.0517,0.0516,0.0514,0.0513,0.0513,0,0,0,0,0,0,0,0.0784,0.0777,0.0709,0.0706,0.07,0.0686,0.0677,0.0657,0.0608,0.0637,0.0633,0.0625,0.0564,0.0551,0.0546,0.0516,0.0516,0.0514,0.0512,0.0511,0.0483,0.0484,0,0,0,0,0,0,0.0794,0.078,0.0711,0.0706,0.0738,0.0685,0.0675,0.0661,0.0608,0.0599,0.0625,0.0622,0.0555,0.0549,0.0543,0.054,0.0513,0.0511,0.051,0.0483,0.0484,0.0484,0,0,0,0,0,0,0.0797,0.0789,0.0714,0.0742,0.0732,0.0684,0.0669,0.066,0.0647,0.0599,0.059,0.0621,0.0554,0.0546,0.0529,0.0536,0.051,0.0508,0.0482,0.0483,0.0484,0.0534,0,0,0,0,0,0,0.0799,0.079,0.079,0.0743,0.073,0.0702,0.0669,0.0659,0.0643,0.0639,0.0593,0.0585,0.0553,0.0533,0.0526,0.0533,0.0506,0.0481,0.0482,0.0484,0.0531,0.0536,0.0541,0,0,0,0,0,0.0803,0.0807,0.079,0.0782,0.073,0.0702,0.0695,0.0659,0.0644,0.0644,0.0613,0.0586,0.0536,0.0531,0.0524,0.0529,0.048,0.0482,0.0483,0.0529,0.0535,0.054,0,0,0,0,0,0,0.0856,0.08,0.0781,0.077,0.0741,0.0693,0.0691,0.0667,0.0642,0.0638,0.0593,0.0584,0.0571,0.0548,0.0544,0.0526,0.0505,0.0505,0.0542,0.0548,0.0552,0.0558,0.0504,0,0,0,0,0,0.0867,0.085,0.0801,0.0796,0.0783,0.074,0.0726,0.0701,0.0669,0.0657,0.0625,0.0595,0.0572,0.0559,0.0535,0.0527,0.0516,0.0527,0.0532,0.0536,0.0537,0.053,0.0534,0.0489,0.0489,0.0489,0,0,0.0888,0.0855,0.0847,0.0806,0.0781,0.0764,0.073,0.0713,0.07,0.0654,0.0636,0.0611,0.0575,0.0562,0.0555,0.0543,0.0547,0.0538,0.0542,0.054,0.0532,0.0537,0.054,0.049,0.049,0.049,0,0,0.0919,0.0892,0.0885,0.086,0.0823,0.0794,0.0792,0.0747,0.0729,0.071,0.0675,0.0658,0.062,0.0596,0.0578,0.0598,0.0573,0.0592,0.0617,0.0611,0.0615,0.0618,0.0625,0.0628,0.0593,0.0593,0.0593,0,0.0951,0.0924,0.0884,0.087,0.0852,0.081,0.0802,0.0779,0.0736,0.0725,0.0712,0.0663,0.0636,0.0616,0.0621,0.0608,0.0605,0.0597,0.0617,0.062,0.0622,0.0628,0.0631,0.0595,0.0595,0.0595,0.0595,0,0.0964,0.0946,0.0945,0.0904,0.0886,0.0875,0.0833,0.082,0.0795,0.0768,0.0748,0.0714,0.0682,0.0675,0.0651,0.0652,0.0646,0.0626,0.0603,0.063,0.0635,0.0637,0.0599,0.0598,0.0597,0.0597,0,0,0.1028,0.0964,0.0965,0.0945,0.09,0.0885,0.0872,0.0841,0.083,0.0801,0.0789,0.0757,0.0738,0.0718,0.0691,0.0686,0.0703,0.0666,0.0664,0.0674,0.0702,0.0718,0.0721,0.0686,0.0686,0.0686,0.0705,0,0.1051,0.1025,0.0989,0.0975,0.0957,0.0916,0.0904,0.0874,0.0848,0.0829,0.0799,0.0777,0.0754,0.0741,0.0734,0.0703,0.0708,0.0701,0.0673,0.0673,0.0684,0.0724,0.0741,0.076,0.0707,0.0707,0.0707,0,0.1076,0.1049,0.1034,0.0989,0.0981,0.0971,0.0939,0.0921,0.0887,0.0868,0.0846,0.0815,0.0798,0.0778,0.0753,0.0749,0.0735,0.0718,0.0717,0.0714,0.0692,0.0722,0.0766,0.0769,0.071,0.071,0.071,0,0.1124,0.1084,0.1069,0.1054,0.1002,0.0996,0.0974,0.0938,0.0922,0.0894,0.0883,0.0854,0.0838,0.0815,0.0778,0.0766,0.0757,0.0734,0.0741,0.0742,0.0741,0.0742,0.0784,0.0732,0.0732,0.0732,0.0732,0,0.1155,0.1147,0.109,0.1081,0.1071,0.1028,0.1019,0.0993,0.0962,0.0947,0.0908,0.0895,0.0846,0.0826,0.0797,0.0781,0.0774,0.0758,0.075,0.0761,0.0764,0.0752,0.075,0.0733,0.0732,0.0732,0.0732,0,0.1207,0.1169,0.115,0.1102,0.1089,0.1084,0.1042,0.1032,0.1002,0.0984,0.0977,0.0931,0.0906,0.0866,0.0829,0.0809,0.0798,0.0785,0.081,0.0806,0.0815,0.0815,0.0852,0.0854,0.0801,0.0801,0.0802,0,0.1229,0.1222,0.1173,0.116,0.114,0.1119,0.1102,0.106,0.1044,0.1003,0.0998,0.097,0.0945,0.0907,0.087,0.0841,0.0827,0.0842,0.0823,0.0834,0.0827,0.0829,0.0827,0.0847,0.0848,0.0848,0.0849,0,0.1273,0.1254,0.1232,0.1202,0.1183,0.1158,0.113,0.1122,0.1073,0.1057,0.1031,0.1012,0.0974,0.0946,0.0912,0.0889,0.0861,0.0855,0.0855,0.0867,0.0882,0.0874,0.0823,0.0855,0.0854,0.0854,0.0853,0.0853,0.1311,0.1303,0.1267,0.1243,0.1217,0.1193,0.118,0.1149,0.1127,0.1093,0.1069,0.1044,0.1009,0.096,0.0938,0.0918,0.0905,0.0906,0.0906,0.0907,0.0911,0.0885,0.0911,0.0911,0.0911,0.0911,0.091,0,0.1353,0.1328,0.1306,0.1269,0.125,0.1225,0.1193,0.1178,0.1157,0.1127,0.1103,0.1073,0.1045,0.1006,0.0976,0.0967,0.0953,0.096,0.0961,0.0956,0.0923,0.0927,0.0972,0.0972,0.0972,0.0972,0.0972,0.0972,0.1373,0.1357,0.1334,0.1305,0.128,0.1256,0.124,0.1216,0.1191,0.1159,0.1137,0.1111,0.1077,0.1043,0.1017,0.1006,0.0996,0.1008,0.0993,0.0964,0.0958,0.0953,0.0955,0.1006,0.1006,0.1027,0.1027,0.1027]}]]